date,time,DOY,Ta_1_1_1,RH_1_1_1,LWin_1_1_1,LWout_1_1_1,SWin_1_1_1,SWout_1_1_1,PPFD_1_1_1,SWC_1_1_1,Ts_1_1_1
[yyyy-mm-dd],[HH:MM],[ddd.ddd],[K],[%],[W+1m-2],[W+1m-2],[W+1m-2],[W+1m-2],[µmol+1m-2s-1],[m+3m-3],[K]
2013-05-17,00:30,137.020,282.41333333333336,52.034333333333322,-9999.0,-9999.0,0.15366666666666667,-3.6533333333333329,3.00000000000000006E-003,-9999.0,273.15999999999991
2013-05-17,01:00,137.041,282.47700000000009,54.061000000000014,-9999.0,-9999.0,4.23333333333333478E-002,-3.2076666666666673,0.0000000000000000,-9999.0,273.15999999999991
2013-05-17,01:30,137.062,282.27433333333340,56.945333333333338,-9.8540000000000028,-9999.0,-0.13166666666666668,-2.7436666666666665,0.0000000000000000,-9999.0,273.15999999999991
2013-05-17,02:00,137.083,282.11133333333333,58.794333333333341,-9999.0,-9999.0,-3.49999999999999895E-002,-3.0943333333333332,0.0000000000000000,-9999.0,273.15999999999991
2013-05-17,02:30,137.104,282.04933333333332,59.729666666666667,-9999.0,-9999.0,-1.69999999999999943E-002,-2.9916666666666671,3.33333333333333322E-004,-9999.0,273.15999999999991
2013-05-17,03:00,137.124,281.81666666666672,61.401333333333348,-9999.0,-9999.0,-2.99999999999999815E-002,-3.3239999999999998,2.33333333333333353E-003,-9999.0,273.15999999999991
2013-05-17,03:30,137.145,281.81266666666670,61.475666666666676,-9999.0,-9999.0,-6.83333333333333293E-002,-2.8266666666666667,0.0000000000000000,-9999.0,273.15999999999991
2013-05-17,04:00,137.166,281.51733333333340,62.981666666666669,-9999.0,-9999.0,-0.54366666666666663,-2.4416666666666673,4.73333333333333384E-002,-9999.0,273.15999999999991
2013-05-17,04:30,137.187,281.13766666666669,66.708000000000013,-9.8900000000000006,-9999.0,2.36666666666667039E-002,0.83166666666666655,2.9176666666666669,-9999.0,273.15999999999991
2013-05-17,05:00,137.208,280.92166666666674,68.532999999999987,-9.2988461538461546,-9999.0,1.3416666666666672,12.841000000000001,25.180999999999997,-9999.0,273.15999999999991
2013-05-17,05:30,137.229,280.68299999999999,70.174999999999997,-7.1216666666666670,-9999.0,4.3903333333333334,38.481999999999992,76.134000000000000,-9999.0,273.15999999999991
2013-05-17,06:00,137.249,280.56666666666672,72.727666666666664,-5.9393333333333347,-9999.0,5.6099999999999977,51.975333333333339,105.86966666666667,-9999.0,273.15999999999991
2013-05-17,06:30,137.270,280.82566666666673,70.241666666666688,-5.2099999999999982,-9999.0,6.6796666666666686,61.860333333333337,130.47533333333331,-9999.0,273.15999999999991
2013-05-17,07:00,137.291,281.13933333333335,67.813000000000002,-4.8649999999999993,-9999.0,7.4630000000000001,69.755333333333326,150.83266666666668,-9999.0,273.15999999999991
2013-05-17,07:30,137.312,281.42066666666665,67.270000000000010,-5.4779999999999998,-9999.0,11.254333333333333,103.99900000000000,224.32200000000000,-9999.0,273.15999999999991
2013-05-17,08:00,137.333,282.04000000000002,64.008666666666656,-4.8399999999999999,-9999.0,17.451000000000001,154.53699999999998,329.03300000000007,-9999.0,273.15999999999991
2013-05-17,08:30,137.354,282.88033333333334,58.715333333333334,-2.5363333333333333,-9999.0,39.819999999999986,338.65066666666667,685.47566666666671,-9999.0,273.15999999999991
2013-05-17,09:00,137.374,284.59399999999999,50.384666666666668,0.72566666666666668,-9999.0,79.630000000000010,648.75333333333344,1266.3503333333333,-9999.0,273.15999999999991
2013-05-17,09:30,137.395,285.88233333333335,41.693333333333321,2.0756666666666672,-9999.0,80.528000000000034,669.00000000000000,1321.5100000000000,-9999.0,273.15999999999991
2013-05-17,10:00,137.416,286.23033333333336,39.687333333333328,-3.1353333333333326,-9999.0,33.070999999999998,289.74266666666665,593.05199999999991,-9999.0,273.15999999999991
2013-05-17,10:30,137.437,286.65500000000003,38.257333333333328,-2.1576666666666666,-9999.0,34.837999999999994,305.10633333333334,623.78566666666654,-9999.0,273.15999999999991
2013-05-17,11:00,137.458,287.51833333333337,35.017666666666663,-2.9626666666666663,-9999.0,36.036000000000008,320.20133333333337,664.73266666666666,-9999.0,273.15999999999991
2013-05-17,11:30,137.479,288.28266666666678,33.148333333333326,-3.96666666666668291E-002,-9999.0,51.371666666666677,452.62600000000003,933.56733333333329,-9999.0,273.15999999999991
2013-05-17,12:00,137.499,289.18966666666671,31.536666666666658,5.1186666666666678,-9999.0,84.836999999999989,727.92866666666669,1481.6406666666671,-9999.0,273.15999999999991
2013-05-17,12:30,137.520,289.19633333333331,32.484999999999999,9.2553333333333345,-9999.0,98.314666666666668,845.62233333333324,1696.9533333333327,-9999.0,273.15999999999991
2013-05-17,13:00,137.541,289.78033333333337,33.711999999999996,10.790999999999999,-9999.0,107.44233333333335,936.60300000000018,1884.9323333333339,-9999.0,273.15999999999991
2013-05-17,13:30,137.562,290.64733333333334,33.503666666666668,8.6970000000000010,-9999.0,98.359333333333325,864.36933333333354,1759.9560000000004,-9999.0,273.15999999999991
2013-05-17,14:00,137.583,290.91766666666666,33.970999999999997,0.53666666666666663,-9999.0,60.276333333333341,544.45500000000027,1148.2516666666666,-9999.0,273.15999999999991
2013-05-17,14:30,137.604,291.39866666666671,33.597333333333339,4.0403333333333338,-9999.0,86.847666666666697,741.66266666666684,1494.9833333333333,-9999.0,273.15999999999991
2013-05-17,15:00,137.624,291.77100000000002,34.229333333333329,-0.50133333333333341,-9999.0,67.597333333333339,597.87766666666664,1235.9530000000000,-9999.0,273.15999999999991
2013-05-17,15:30,137.645,292.12566666666669,34.893999999999998,-1.7936666666666670,-9999.0,60.481333333333325,524.29833333333340,1087.8663333333332,-9999.0,273.15999999999991
2013-05-17,16:00,137.666,292.38466666666676,34.365000000000002,-2.3903333333333330,-9999.0,59.633999999999993,498.77599999999995,1009.1006666666667,-9999.0,273.15999999999991
2013-05-17,16:30,137.687,292.53566666666671,34.544333333333341,-3.8453333333333330,-9999.0,53.973666666666659,442.07399999999996,891.29133333333345,-9999.0,273.15999999999991
2013-05-17,17:00,137.708,292.74966666666671,35.434999999999995,-7.6093333333333311,-9999.0,40.192333333333330,329.85599999999999,667.57100000000003,-9999.0,273.15999999999991
2013-05-17,17:30,137.729,292.38266666666675,36.787666666666674,-7.5813333333333324,-9999.0,24.851666666666670,207.39666666666668,418.77833333333342,-9999.0,273.15999999999991
2013-05-17,18:00,137.749,291.97666666666669,39.193666666666672,-8.1953333333333322,-9999.0,8.5863333333333340,77.257333333333321,161.68766666666676,-9999.0,273.15999999999991
2013-05-17,18:30,137.770,291.46900000000005,43.785333333333327,-9.7361111111111089,-9999.0,2.8870000000000000,29.078666666666670,63.931666666666679,-9999.0,273.15999999999991
2013-05-17,19:00,137.791,290.86500000000001,53.333999999999996,-9.7026923076923097,-9999.0,4.2660000000000000,36.733999999999995,76.609999999999999,-9999.0,273.15999999999991
2013-05-17,19:30,137.812,290.12866666666662,58.070666666666668,-9.6625000000000014,-9999.0,1.0976666666666661,7.5756666666666641,22.736333333333345,-9999.0,273.15999999999991
2013-05-17,20:00,137.833,289.29766666666671,62.333333333333357,-9999.0,-9999.0,-7.80000000000000138E-002,-3.7889999999999993,1.4929999999999997,-9999.0,273.15999999999991
2013-05-17,20:30,137.854,288.68866666666668,65.185000000000016,-9999.0,-9999.0,-6.76666666666666805E-002,-3.8863333333333334,1.60000000000000038E-002,-9999.0,273.15999999999991
2013-05-17,21:00,137.874,287.92099999999999,68.738666666666674,-9999.0,-9999.0,-9.36666666666666481E-002,-4.3156666666666670,0.0000000000000000,-9999.0,273.15999999999991
2013-05-17,21:30,137.895,287.17333333333335,72.122333333333330,-9999.0,-9999.0,2.00000000000000004E-002,-4.2286666666666664,0.0000000000000000,-9999.0,273.15999999999991
2013-05-17,22:00,137.916,286.55933333333331,75.449666666666673,-9.6730000000000018,-9999.0,1.76666666666666639E-002,-3.7056666666666676,0.0000000000000000,-9999.0,273.15999999999991
2013-05-17,22:30,137.937,286.13333333333327,78.382333333333307,-8.9550000000000001,-9999.0,-0.12733333333333333,-2.5186666666666664,6.66666666666666644E-004,-9999.0,273.15999999999991
2013-05-17,23:00,137.958,285.91466666666668,79.836666666666673,-8.3196666666666665,-9999.0,-0.53433333333333333,-1.4243333333333335,0.0000000000000000,-9999.0,273.15999999999991
2013-05-17,23:30,137.979,285.86100000000005,78.510333333333350,-8.0723333333333347,-9999.0,-0.61566666666666647,-1.1736666666666666,0.0000000000000000,-9999.0,273.15999999999991
2013-05-18,00:00,138.000,285.83366666666660,77.644333333333364,-7.9633333333333329,-9999.0,-0.64666666666666661,-1.1373333333333333,0.0000000000000000,-9999.0,273.15999999999991
